Back to catalog

COSMOS 2251 DEB

AliveLEO
NORAD 34120·DEBRIS·🇷🇺 Russia

Launched Jun 16, 1993 from Plesetsk Cosmodrome

Loading…

Next Passes (next 24 hours)

TLE

FreshSource: Space-Track

Epoch: Sep 14, 2026, 07:04 UTC

1 34120U 93036KR  26257.29490569  .00000271  00000-0  17763-3 0  9994
2 34120  73.9900  98.7872 0182643 226.5037 311.2618 13.98919873898331

Track COSMOS 2251 DEB in real time with AllMySat

Download on the App Store